FW5122 Weather Reports


Display with metric or nautical units.
time (UTC)temp
F
wind
direction
speed
MPH
gust
MPH
rain 1hr
in
rain 24hr
in
rain mn
in
humidity
%
barometer
mb
20260507090432 55 359 0.0 2.0 0.00 0.00 0.00 81 1018.5
20260507085731 55 11 0.0 2.0 0.00 0.00 0.00 81 1018.2
20260507084332 55 1 0.0 4.0 0.00 0.00 0.00 81 1018.5
20260507083631 56 1 0.0 4.0 0.00 0.00 0.00 81 1018.5
20260507082931 56 9 0.0 4.0 0.00 0.00 0.00 81 1018.5
20260507082231 56 5 0.0 4.0 0.00 0.00 0.00 81 1018.5
20260507080831 56 10 0.0 4.0 0.00 0.00 0.00 80 1018.5
20260507080132 56 1 0.0 4.0 0.00 0.00 0.00 80 1018.5
20260507075431 56 12 0.0 4.0 0.00 0.00 0.00 80 1017.9
20260507074031 56 357 5.0 6.0 0.00 0.00 0.00 80 1017.9
20260507073331 57 4 0.0 6.0 0.00 0.00 0.00 80 1017.5
20260507070531 57 9 2.0 6.0 0.00 0.00 0.00 79 1017.9
20260507065832 57 7 0.0 6.0 0.00 0.00 0.00 79 1017.9
20260507065131 57 1 0.0 6.0 0.00 0.00 0.00 79 1017.9
20260507064431 57 14 2.0 6.0 0.00 0.00 0.00 78 1017.9
20260507063731 57 7 0.0 8.0 0.00 0.00 0.00 78 1017.9
20260507063031 57 20 5.0 8.0 0.00 0.00 0.00 78 1017.5
20260507062331 58 10 0.0 8.0 0.00 0.00 0.00 78 1017.9
20260507061631 58 6 2.0 8.0 0.00 0.00 0.00 78 1017.9
20260507060931 58 5 0.0 8.0 0.00 0.00 0.00 78 1017.5
20260507060231 58 9 2.0 8.0 0.00 0.00 0.00 77 1017.9
20260507054831 59 35 5.0 8.0 0.00 0.00 0.00 77 1017.5
20260507054131 59 6 2.0 6.0 0.00 0.00 0.00 77 1017.5
20260507053431 59 4 2.0 6.0 0.00 0.00 0.00 77 1017.5
20260507052731 59 27 2.0 6.0 0.00 0.00 0.00 77 1017.5
20260507052031 59 295 5.0 6.0 0.00 0.00 0.00 77 1017.9
20260507051331 59 5 2.0 6.0 0.00 0.00 0.00 76 1017.9
20260507050631 59 6 5.0 8.0 0.00 0.00 0.00 76 1017.5
20260507045231 60 8 0.0 8.0 0.00 0.00 0.15 76 1017.5
20260507044531 60 345 5.0 8.0 0.00 0.00 0.15 76 1017.5
20260507043831 60 9 2.0 8.0 0.00 0.00 0.15 76 1017.9
20260507043131 60 353 5.0 8.0 0.00 0.00 0.15 76 1017.9
20260507042431 60 13 5.0 8.0 0.00 0.00 0.15 76 1017.9
20260507041731 60 9 5.0 8.0 0.00 0.00 0.15 76 1018.2
20260507041031 60 1 5.0 8.0 0.00 0.00 0.15 76 1018.2
20260507035631 60 6 8.0 8.0 0.00 0.00 0.15 76 1018.2
20260507034931 60 12 2.0 8.0 0.00 0.00 0.15 76 1018.2
20260507034230 60 26 8.0 8.0 0.00 0.00 0.15 76 1017.9
20260507033531 60 3 5.0 8.0 0.00 0.00 0.15 76 1018.2
20260507032831 60 6 5.0 10.0 0.00 0.00 0.15 76 1017.9
20260507032131 60 3 8.0 10.0 0.00 0.00 0.15 76 1017.9
20260507031431 60 4 5.0 10.0 0.00 0.00 0.15 76 1017.9
20260507030731 60 8 2.0 10.0 0.00 0.00 0.15 76 1017.5
20260507030031 60 8 2.0 10.0 0.00 0.00 0.15 76 1017.9
20260507025331 60 2 8.0 10.0 0.00 0.00 0.15 76 1017.9
20260507024631 60 3 2.0 10.0 0.00 0.00 0.15 77 1017.5
20260507023930 60 346 11.0 10.0 0.00 0.00 0.15 77 1017.2
20260507023230 60 6 2.0 10.0 0.00 0.00 0.15 77 1017.2
20260507022530 60 7 2.0 10.0 0.00 0.00 0.15 77 1016.8
20260507021131 60 2 2.0 10.0 0.00 0.00 0.15 77 1016.8
20260507020430 60 357 8.0 8.0 0.00 0.00 0.15 77 1016.5
20260507015730 60 334 5.0 6.0 0.00 0.00 0.15 77 1016.5
20260507015030 60 5 5.0 6.0 0.00 0.00 0.15 77 1016.2
20260507014332 60 352 5.0 6.0 0.00 0.00 0.15 78 1015.8
20260507013631 60 8 5.0 6.0 0.00 0.00 0.15 77 1015.8
20260507012931 60 340 5.0 6.0 0.00 0.00 0.15 77 1015.8
20260507012231 60 35 2.0 6.0 0.00 0.00 0.15 77 1015.8
20260507011531 60 27 5.0 6.0 0.00 0.00 0.15 77 1015.8
20260507010830 60 347 5.0 6.0 0.00 0.00 0.15 77 1015.5
20260507010131 60 352 5.0 6.0 0.00 0.00 0.15 77 1015.5
20260507005430 60 354 8.0 6.0 0.00 0.00 0.15 77 1015.5
20260507004031 60 1 5.0 8.0 0.00 0.00 0.15 76 1015.1
20260507003331 61 342 8.0 8.0 0.00 0.00 0.15 76 1015.1
20260507002630 61 6 5.0 8.0 0.00 0.00 0.15 76 1015.5
20260507001230 61 1 5.0 8.0 0.00 0.00 0.15 75 1014.8
20260506235831 61 6 0.0 8.0 0.00 0.00 0.15 75 1014.8
20260506235133 61 9 2.0 8.0 0.00 0.00 0.15 75 1014.8
20260506234433 62 5 5.0 6.0 0.00 0.00 0.15 75 1014.8
20260506233733 62 8 5.0 8.0 0.00 0.00 0.15 75 1014.8
20260506233033 62 8 2.0 8.0 0.00 0.00 0.15 74 1014.8
20260506232333 62 5 5.0 8.0 0.00 0.00 0.15 74 1014.5
20260506231633 62 10 5.0 8.0 0.00 0.00 0.15 74 1014.5
20260506230933 62 11 0.0 8.0 0.00 0.00 0.15 74 1014.8
20260506230233 62 3 0.0 8.0 0.00 0.00 0.15 74 1014.5
20260506225533 62 341 2.0 8.0 0.00 0.00 0.15 74 1014.5
20260506224833 62 7 5.0 8.0 0.00 0.00 0.15 74 1014.5
20260506224133 62 354 5.0 8.0 0.00 0.00 0.15 74 1014.5
20260506222733 62 9 5.0 6.0 0.00 0.00 0.15 74 1014.5
20260506222033 62 339 2.0 6.0 0.00 0.00 0.15 74 1014.1
20260506221333 62 8 5.0 6.0 0.00 0.00 0.15 75 1014.1
20260506215933 62 10 2.0 6.0 0.00 0.00 0.15 76 1013.8
20260506214533 61 355 2.0 6.0 0.00 0.00 0.15 76 1013.8
20260506213833 62 5 2.0 6.0 0.00 0.00 0.15 75 1013.8
20260506211733 62 340 8.0 6.0 0.00 0.00 0.15 74 1014.1
20260506211033 62 5 5.0 6.0 0.00 0.00 0.15 74 1014.5
20260506210333 63 355 2.0 6.0 0.00 0.00 0.15 74 1014.1
20260506205632 62 35 5.0 8.0 0.00 0.00 0.15 74 1014.1
20260506204933 62 349 5.0 8.0 0.00 0.00 0.15 74 1014.5
20260506204232 62 357 2.0 8.0 0.00 0.00 0.15 74 1014.5
20260506203533 62 350 8.0 8.0 0.00 0.00 0.15 74 1014.8
20260506202833 62 17 5.0 10.0 0.00 0.00 0.15 75 1014.5
20260506202132 62 5 2.0 10.0 0.00 0.00 0.15 75 1014.8
20260506201433 62 25 8.0 10.0 0.00 0.00 0.15 76 1014.8
20260506200033 61 7 5.0 10.0 0.00 0.00 0.15 76 1014.8
20260506195336 61 7 5.0 10.0 0.00 0.00 0.15 77 1014.8
20260506194633 60 358 8.0 10.0 0.00 0.00 0.15 77 1014.8
20260506193932 60 356 5.0 10.0 0.00 0.00 0.15 78 1014.8
20260506193232 59 331 5.0 6.0 0.00 0.00 0.15 79 1015.1
20260506192532 59 35 5.0 6.0 0.00 0.00 0.15 79 1015.1
20260506191833 59 7 0.0 6.0 0.00 0.00 0.15 79 1015.5
20260506185732 58 3 5.0 10.0 0.00 0.00 0.15 80 1015.5
20260506184333 58 351 2.0 14.0 0.00 0.00 0.15 80 1015.1
20260506182232 57 5 2.0 14.0 0.00 0.00 0.15 81 1014.8
20260506181532 57 6 5.0 14.0 0.00 0.00 0.15 81 1014.5
20260506180833 57 340 8.0 14.0 0.00 0.00 0.15 82 1014.1
20260506180132 57 6 5.0 14.0 0.00 0.00 0.15 82 1013.8
20260506175432 57 14 8.0 10.0 0.00 0.00 0.15 82 1013.8
20260506174733 57 347 8.0 10.0 0.00 0.00 0.15 82 1014.1
20260506174032 57 6 5.0 6.0 0.00 0.00 0.15 83 1014.8
20260506173332 57 357 5.0 6.0 0.00 0.00 0.15 84 1014.5
20260506171932 56 8 2.0 10.0 0.00 0.00 0.15 84 1015.1
20260506171232 56 7 0.0 10.0 0.00 0.00 0.15 84 1015.5
20260506170532 56 10 2.0 10.0 0.00 0.00 0.15 84 1015.5
20260506165832 56 2 8.0 10.0 0.00 0.00 0.15 84 1015.1
20260506165133 56 341 5.0 10.0 0.00 0.00 0.15 83 1014.5
20260506164432 56 355 8.0 10.0 0.00 0.00 0.15 83 1014.5
20260506163732 56 14 14.0 10.0 0.00 0.00 0.15 83 1015.1
20260506163032 57 6 0.0 6.0 0.00 0.00 0.15 84 1014.8
20260506162332 57 5 2.0 6.0 0.00 0.00 0.15 85 1015.1
20260506161632 56 348 5.0 10.0 0.00 0.00 0.15 84 1015.5
20260506160932 56 33 0.0 10.0 0.00 0.00 0.15 85 1015.5
20260506160233 55 359 0.0 10.0 0.00 0.00 0.15 85 1015.5
20260506155532 55 5 0.0 10.0 0.00 0.00 0.15 84 1015.5
20260506154832 55 128 5.0 10.0 0.00 0.00 0.15 83 1015.5
20260506154132 54 351 2.0 10.0 0.00 0.00 0.15 83 1015.5
20260506153432 54 42 0.0 10.0 0.00 0.00 0.14 83 1015.1
20260506152732 55 5 8.0 8.0 0.00 0.00 0.12 82 1014.8
20260506151332 55 348 2.0 8.0 0.00 0.00 0.00 79 1016.5
20260506150632 55 1 5.0 8.0 0.00 0.00 0.00 79 1016.5
20260506145932 55 4 2.0 8.0 0.00 0.00 0.00 79 1016.2
20260506145232 55 8 5.0 8.0 0.00 0.00 0.00 78 1015.8
20260506144532 56 10 0.0 8.0 0.00 0.00 0.00 77 1015.1
20260506143832 55 349 11.0 8.0 0.00 0.00 0.00 77 1015.1
20260506143132 56 351 5.0 8.0 0.00 0.00 0.00 77 1014.8
20260506142432 56 359 5.0 8.0 0.00 0.00 0.00 76 1015.1
20260506141732 56 8 2.0 8.0 0.00 0.00 0.00 76 1014.8
20260506141032 56 8 5.0 8.0 0.00 0.00 0.00 76 1014.8
20260506140332 56 355 5.0 8.0 0.00 0.00 0.00 76 1014.8
20260506134932 56 16 5.0 8.0 0.00 0.00 0.00 76 1014.5
20260506134232 56 347 5.0 8.0 0.00 0.00 0.00 75 1014.5
20260506133532 56 354 8.0 10.0 0.00 0.00 0.00 76 1014.1
20260506132832 56 357 5.0 10.0 0.00 0.00 0.00 75 1014.5
20260506132132 56 2 5.0 10.0 0.00 0.00 0.00 75 1014.1
20260506130732 56 5 5.0 12.0 0.00 0.00 0.00 75 1013.8
20260506125532 56 0 8.0 14.0 0.00 0.00 0.00 75 1013.8
20260506124832 56 347 11.0 14.0 0.00 0.00 0.00 75 1013.8
20260506124132 56 358 8.0 14.0 0.00 0.00 0.00 74 1013.5
20260506123432 56 8 8.0 14.0 0.00 0.00 0.00 74 1013.1
20260506122733 57 354 8.0 14.0 0.00 0.00 0.00 74 1013.5
20260506122032 57 334 8.0 14.0 0.00 0.00 0.00 74 1013.5
20260506120631 57 44 8.0 14.0 0.00 0.00 0.00 73 1013.5
20260506115231 57 343 8.0 10.0 0.00 0.00 0.00 72 1013.1
20260506114532 58 58 14.0 10.0 0.00 0.00 0.00 73 1013.1
20260506113831 58 335 8.0 10.0 0.00 0.00 0.00 72 1012.8
20260506113132 58 0 5.0 10.0 0.00 0.00 0.00 72 1012.4
20260506112432 58 8 2.0 10.0 0.00 0.00 0.00 72 1012.4
20260506111732 59 55 8.0 10.0 0.00 0.00 0.00 72 1012.4
20260506111031 59 8 5.0 8.0 0.00 0.00 0.00 72 1012.4
20260506110333 59 11 5.0 8.0 0.00 0.00 0.00 72 1012.1
20260506105631 59 2 5.0 8.0 0.00 0.00 0.00 72 1012.1
20260506104932 59 358 5.0 8.0 0.00 0.00 0.00 72 1012.1
20260506103531 60 5 5.0 8.0 0.00 0.00 0.00 72 1011.8
20260506102831 60 343 5.0 8.0 0.00 0.00 0.00 72 1011.8
20260506102131 60 358 2.0 8.0 0.00 0.00 0.00 72 1011.4
20260506101431 60 359 5.0 8.0 0.00 0.00 0.00 72 1011.4
20260506100731 60 7 2.0 8.0 0.00 0.00 0.00 72 1011.1
20260506100032 60 356 5.0 8.0 0.00 0.00 0.00 72 1011.1
20260506095331 60 0 5.0 6.0 0.00 0.00 0.00 72 1011.1
20260506094631 60 357 5.0 6.0 0.00 0.00 0.00 72 1010.7
20260506093231 60 342 8.0 6.0 0.00 0.00 0.00 72 1011.1
20260506092531 60 6 5.0 6.0 0.00 0.00 0.00 72 1011.1
20260506091831 60 9 2.0 6.0 0.00 0.00 0.00 72 1011.1
20260506091131 60 0 5.0 6.0 0.00 0.00 0.00 72 1010.7